Tracking 20472 objects as of 28-Feb-2020
HD Live streaming from Space Station
objects crossing your sky now

OPS 8068

Track OPS 8068 now!
10-day predictions
OPS 8068 is classified as:


NORAD ID: 1580
Int'l Code: 1965-072A
Perigee: 638.5 km
Apogee: 975.5 km
Inclination: 98.4 °
Period: 100.9 minutes
Semi major axis: 7178 km
RCS: 0.631 m2 (medium)
Launch date: September 10, 1965
Source: United States (US)
Launch site: AIR FORCE WESTERN TEST RANGE (AFWTR)
aabbcc
Your satellite tracking list
Your tracking list is empty




NASA's NSSDC Master Catalog

Two Line Element Set (TLE):
1  1580U 65072A   20058.86256603 +.00000004 +00000-0 +16222-4 0  9996
2  1580 098.4123 278.2902 0234744 001.4872 358.6958 14.27561929804562
Source of the keplerian elements: AFSPC